Regional Weather Roundup
Issued by NWS

Home | Current Version | Previous Version | Graphics & Text | Print | Product List | Glossary Off
Versions: 1 2 3 4 5 6 7 8 9 10 11 12 13 14 15 16 17 18 19 20 21 22 23 24 25 26 27 28 29 30 31 32 33 34 35 36 37 38 39 40 41 42 43 44 45 46 47 48 49 50

000
ASUS43 KLSX 131107
RWRMO

WEATHER SUMMARY FOR MISSOURI
NATIONAL WEATHER SERVICE SPRINGFIELD MO
500 AM CST SAT FEB 13 2016

NOTE: "FAIR" INDICATES FEW OR NO CLOUDS BELOW 12,000 FEET WITH NO
       SIGNIFICANT WEATHER AND/OR OBSTRUCTIONS TO VISIBILITY.
       CURRENT SKY AND/OR WEATHER CONDITIONS ARE NOT AVAILABLE FOR
       CHILLICOTHE AND FARMINGTON.

MOZ001>031-035>038-043-044-053-054-131200-
...NORTHERN AND WESTERN MISSOURI...

CITY           SKY/WX    TMP DP  RH WIND       PRES   REMARKS
KANSAS CTY INT CLOUDY    16   4  59 E9        30.59R WCI   4
KANSAS C DTWN  CLOUDY    18   2  49 E8        30.62R WCI   8
LEE`S SUMMIT   CLOUDY    16   1  51 NE9       30.59S WCI   4
ST JOSEPH      CLOUDY    15   2  56 NE7       30.64R WCI   5
CHILLICOTHE      N/A     12   1  61 N6        30.66R WCI   3
KIRKSVILLE     CLOUDY     6  -2  69 N7        30.62S WCI  -6

$$
MOZ066>068-077>081-088>096-101>105-131200-
...SOUTHWEST MISSOURI...

CITY           SKY/WX    TMP DP  RH WIND       PRES   REMARKS
SPRINGFIELD    CLOUDY    22   3  44 NE10      30.50F WCI  11
JOPLIN         CLOUDY    24   3  40 NE9       30.53R WCI  14

$$
MOZ032>034-039>042-045>050-055>058-069>072-131200-
...CENTRAL MISSOURI...

CITY           SKY/WX    TMP DP  RH WIND       PRES   REMARKS
COLUMBIA       CLOUDY    13   3  64 NE12      30.61S WCI  -1
JEFFERSON CITY CLOUDY    15   1  53 NE8       30.63F WCI   4
ROLLA          CLOUDY    15   1  53 N9        30.56R WCI   3
SEDALIA        CLOUDY    16   3  56 NE9       30.62S WCI   4
WHITEMAN AFB   CLOUDY    16   3  57 NE9       30.59F WCI   4
WARRENSBURG    CLOUDY    18   5  57 N9        30.61S WCI   6
OSAGE BEACH    CLOUDY    18   1  49 N6        30.58F WCI   9

$$
MOZ051-052-059>065-131200-
...EAST CENTRAL MISSOURI...

CITY           SKY/WX    TMP DP  RH WIND       PRES   REMARKS
ST LOUIS INTL  PTCLDY    13   2  61 NW8       30.63R WCI   2
SPIRIT OF STL  PTCLDY    12   2  64 N7        30.64R WCI   1
ST CHARLES     PTCLDY    11   2  67 NW7       30.65R WCI   0

$$
MOZ072>076-082>087-097>100-106>115-131200-
...SOUTH CENTRAL AND SOUTHEAST MISSOURI...

CITY           SKY/WX    TMP DP  RH WIND       PRES   REMARKS
CAPE GIRARDEAU CLOUDY    19   6  57 N17       30.58R WCI   4
FARMINGTON     CLOUDY    15   4  61 N7        30.57R WCI   5
POPLAR BLUFF   CLOUDY    22   4  46 N10       30.56R WCI  11
WEST PLAINS    CLOUDY    22   5  48 N13       30.52R WCI  10

$$


USA.gov is the U.S. government's official web portal to all federal, state and local government web resources and services.